Location: Newark
(45.8667°N, 9.7333°E)
Time: 15:23:11
(UTC+00:00)

Transit 4A - Pass Details

Date: 02 February 2020
Orbit: 872 x 973 km, 66.8° (Epoch: 26 February)

Event Time Altitude Azimuth Distance (km) Brightness Sun altitude
Rises 10:59:17 0° 330° (NNW) 3,474 10.4 26.7°
Reaches altitude 10° 11:02:20 10° 345° (NNW) 2,530 9.7 26.8°
Maximum altitude 11:06:55 23° 37° (NE) 1,769 9.2 26.9°
Drops below altitude 10° 11:11:30 10° 89° (E) 2,534 10.3 27.0°
Sets 11:14:32 0° 104° (ESE) 3,480 11.1 27.1°
